EW1710 Weather Reports


Display with metric or nautical units.
time (UTC)temp
F
wind
direction
speed
MPH
gust
MPH
rain 1hr
in
rain 24hr
in
rain mn
in
humidity
%
barometer
mb
20260510234341 54 44 0.0 1.0 0.00 0.00 0.00 44 1021.0
20260510233836 55 55 0.0 0.0 0.00 0.00 0.00 41 1020.9
20260510233334 55 56 0.0 0.0 0.00 0.00 0.00 41 1021.0
20260510232830 55 42 0.0 0.0 0.00 0.00 0.00 39 1021.0
20260510232326 55 70 0.0 0.0 0.00 0.00 0.00 37 1021.2
20260510231822 55 38 0.0 0.0 0.00 0.00 0.00 41 1020.9
20260510231320 56 60 1.0 1.0 0.00 0.00 0.00 37 1021.1
20260510230816 56 38 0.0 0.0 0.00 0.00 0.00 35 1020.9
20260510230311 57 86 1.0 1.0 0.00 0.00 0.00 33 1021.0
20260510225808 57 343 0.0 0.0 0.00 0.00 0.00 36 1020.9
20260510225306 59 277 2.0 2.0 0.00 0.00 0.00 31 1020.8
20260510224800 59 314 2.0 2.0 0.00 0.00 0.00 31 1020.9
20260510224256 59 357 1.0 1.0 0.00 0.00 0.00 36 1020.7
20260510223754 60 102 1.0 2.0 0.00 0.00 0.00 30 1020.9
20260510223251 59 181 0.0 0.0 0.00 0.00 0.00 30 1020.9
20260510222749 59 269 4.0 6.0 0.00 0.00 0.00 31 1020.6
20260510222245 59 67 1.0 1.0 0.00 0.00 0.00 31 1020.4
20260510221740 59 77 2.0 2.0 0.00 0.00 0.00 32 1020.7
20260510221238 59 210 1.0 1.0 0.00 0.00 0.00 30 1020.6
20260510220734 59 293 3.0 2.0 0.00 0.00 0.00 30 1020.3
20260510220229 59 32 1.0 2.0 0.00 0.00 0.00 33 1020.6
20260510215727 59 88 0.0 0.0 0.00 0.00 0.00 31 1020.4
20260510215224 59 7 2.0 5.0 0.00 0.00 0.00 34 1020.5
20260510214721 59 117 3.0 5.0 0.00 0.00 0.00 32 1020.2
20260510214219 59 278 1.0 1.0 0.00 0.00 0.00 33 1020.2
20260510213715 59 212 0.0 0.0 0.00 0.00 0.00 37 1020.2
20260510213212 59 270 4.0 6.0 0.00 0.00 0.00 30 1020.3
20260510212708 59 280 4.0 5.0 0.00 0.00 0.00 35 1019.9
20260510212206 59 20 1.0 2.0 0.00 0.00 0.00 38 1019.9
20260510211702 59 3 3.0 3.0 0.00 0.00 0.00 32 1020.1
20260510211156 59 29 5.0 7.0 0.00 0.00 0.00 33 1020.2
20260510210654 59 1 1.0 1.0 0.00 0.00 0.00 32 1019.8
20260510210149 59 36 1.0 1.0 0.00 0.00 0.00 33 1019.6
20260510205648 59 2 3.0 3.0 0.00 0.00 0.00 35 1020.0
20260510205144 60 280 2.0 2.0 0.00 0.00 0.00 31 1019.9
20260510204640 59 23 5.0 8.0 0.00 0.00 0.00 32 1019.6
20260510204137 58 356 3.0 3.0 0.00 0.00 0.00 33 1020.0
20260510203634 59 322 2.0 3.0 0.00 0.00 0.00 30 1020.1
20260510203131 60 294 1.0 1.0 0.00 0.00 0.00 31 1020.0
20260510202631 60 75 3.0 3.0 0.00 0.00 0.00 30 1019.9
20260510202126 59 14 2.0 3.0 0.00 0.00 0.00 35 1020.0
20260510201624 59 136 1.0 1.0 0.00 0.00 0.00 33 1019.6
20260510201120 59 279 3.0 3.0 0.00 0.00 0.00 32 1020.2
20260510200616 60 272 7.0 8.0 0.00 0.00 0.00 30 1020.2
20260510200115 60 62 2.0 5.0 0.00 0.00 0.00 32 1020.0
20260510195612 60 347 2.0 3.0 0.00 0.00 0.00 31 1020.1
20260510195108 59 19 3.0 3.0 0.00 0.00 0.00 27 1020.0
20260510194602 59 9 5.0 7.0 0.00 0.00 0.00 33 1020.0
20260510194059 59 6 2.0 2.0 0.00 0.00 0.00 29 1020.0
20260510193553 59 37 2.0 2.0 0.00 0.00 0.00 38 1020.1
20260510193049 59 94 5.0 8.0 0.00 0.00 0.00 35 1019.9
20260510192549 60 349 3.0 5.0 0.00 0.00 0.00 32 1019.9
20260510192046 60 167 3.0 5.0 0.00 0.00 0.00 32 1020.0
20260510191542 60 349 1.0 2.0 0.00 0.00 0.00 31 1020.0
20260510191039 60 300 3.0 3.0 0.00 0.00 0.00 26 1020.1
20260510190536 59 326 3.0 5.0 0.00 0.00 0.00 30 1019.8
20260510190034 59 338 4.0 6.0 0.00 0.00 0.00 26 1020.1
20260510185530 60 5 6.0 8.0 0.00 0.00 0.00 27 1019.8
20260510185028 59 351 5.0 7.0 0.00 0.00 0.00 30 1019.5
20260510184525 60 9 5.0 6.0 0.00 0.00 0.00 29 1019.8
20260510184020 59 28 4.0 3.0 0.00 0.00 0.00 29 1019.5
20260510183516 60 97 1.0 2.0 0.00 0.00 0.00 34 1019.4
20260510183011 60 203 2.0 2.0 0.00 0.00 0.00 29 1019.4
20260510182509 60 20 3.0 6.0 0.00 0.00 0.00 28 1019.4
20260510182003 59 106 8.0 11.0 0.00 0.00 0.00 27 1019.2
20260510181502 60 298 5.0 5.0 0.00 0.00 0.00 32 1019.2
20260510180956 60 359 3.0 3.0 0.00 0.00 0.00 28 1019.0
20260510180454 59 106 2.0 3.0 0.00 0.00 0.00 31 1019.4
20260510175951 60 35 7.0 10.0 0.00 0.00 0.00 29 1019.2
20260510175447 60 84 4.0 6.0 0.00 0.00 0.00 34 1019.3
20260510174943 59 309 2.0 3.0 0.00 0.00 0.00 34 1019.1
20260510174441 60 351 3.0 3.0 0.00 0.00 0.00 34 1019.3
20260510173938 60 10 2.0 2.0 0.00 0.00 0.00 36 1019.4
20260510173433 60 148 1.0 1.0 0.00 0.00 0.00 32 1019.1
20260510172930 60 275 2.0 3.0 0.00 0.00 0.00 34 1019.3
20260510172426 60 357 3.0 3.0 0.00 0.00 0.00 30 1019.5
20260510171922 60 72 0.0 1.0 0.00 0.00 0.00 34 1019.3
20260510171419 59 330 4.0 5.0 0.00 0.00 0.00 33 1019.5
20260510170916 59 27 3.0 5.0 0.00 0.00 0.00 35 1019.8
20260510170413 60 24 1.0 1.0 0.00 0.00 0.00 33 1019.5
20260510165908 59 83 4.0 6.0 0.00 0.00 0.00 37 1019.5
20260510165404 59 30 3.0 3.0 0.00 0.00 0.00 36 1019.3
20260510164902 58 211 3.0 3.0 0.00 0.00 0.00 33 1019.4
20260510164359 59 285 11.0 13.0 0.00 0.00 0.00 33 1019.4
20260510163859 59 357 3.0 3.0 0.00 0.00 0.00 32 1019.3
20260510163355 59 32 5.0 6.0 0.00 0.00 0.00 34 1019.1
20260510162849 60 44 1.0 1.0 0.00 0.00 0.00 38 1019.4
20260510162347 59 329 1.0 2.0 0.00 0.00 0.00 39 1019.1
20260510161842 59 97 4.0 5.0 0.00 0.00 0.00 35 1019.0
20260510161339 58 154 1.0 1.0 0.00 0.00 0.00 48 1019.0
20260510160836 58 114 3.0 2.0 0.00 0.00 0.00 35 1018.9
20260510160332 58 31 3.0 5.0 0.00 0.00 0.00 41 1019.0
20260510155826 58 25 1.0 1.0 0.00 0.00 0.00 39 1019.0
20260510155324 57 328 5.0 6.0 0.00 0.00 0.00 37 1018.8
20260510154819 58 56 3.0 5.0 0.00 0.00 0.00 41 1018.8
20260510154315 57 308 3.0 3.0 0.00 0.00 0.00 45 1018.8
20260510153810 57 253 4.0 5.0 0.00 0.00 0.00 39 1018.7
20260510153306 57 22 1.0 2.0 0.00 0.00 0.00 45 1018.8
20260510152803 57 287 2.0 2.0 0.00 0.00 0.00 44 1018.6
20260510152300 57 314 4.0 6.0 0.00 0.00 0.00 43 1018.7
20260510151756 57 259 2.0 3.0 0.00 0.00 0.00 41 1018.6
20260510151255 57 34 2.0 2.0 0.00 0.00 0.00 47 1018.7
20260510150750 57 41 2.0 3.0 0.00 0.00 0.00 42 1018.5
20260510150246 56 30 2.0 2.0 0.00 0.00 0.00 44 1018.3
20260510145742 56 275 5.0 6.0 0.00 0.00 0.00 45 1018.3
20260510145239 56 79 1.0 1.0 0.00 0.00 0.00 44 1018.3
20260510144734 56 284 2.0 2.0 0.00 0.00 0.00 46 1018.4
20260510144232 55 42 3.0 3.0 0.00 0.00 0.00 43 1018.3
20260510143726 55 28 2.0 2.0 0.00 0.00 0.00 43 1018.4
20260510143223 55 254 5.0 7.0 0.00 0.00 0.00 43 1018.4
20260510142719 55 32 1.0 1.0 0.00 0.00 0.00 43 1018.1
20260510142216 55 26 4.0 5.0 0.00 0.00 0.00 43 1018.3
20260510141713 55 61 2.0 2.0 0.00 0.00 0.00 45 1018.1
20260510141212 54 109 3.0 6.0 0.00 0.00 0.00 48 1018.4
20260510140708 54 46 2.0 1.0 0.00 0.00 0.00 44 1018.2
20260510140207 53 0 4.0 7.0 0.00 0.00 0.00 43 1018.2
20260510135702 53 30 3.0 3.0 0.00 0.00 0.00 45 1018.5
20260510135158 53 16 5.0 7.0 0.00 0.00 0.00 44 1018.3
20260510134656 53 5 2.0 2.0 0.00 0.00 0.00 51 1018.2
20260510134153 52 14 4.0 6.0 0.00 0.00 0.00 51 1018.2
20260510133649 52 338 2.0 2.0 0.00 0.00 0.00 54 1018.1
20260510133144 52 309 2.0 2.0 0.00 0.00 0.00 55 1018.1
20260510132641 51 28 2.0 2.0 0.00 0.00 0.00 55 1017.8
20260510132139 51 3 2.0 2.0 0.00 0.00 0.00 57 1017.8
20260510131636 50 325 1.0 1.0 0.00 0.00 0.00 63 1017.7
20260510131133 50 3 2.0 2.0 0.00 0.00 0.00 63 1017.9
20260510130630 50 26 1.0 1.0 0.00 0.00 0.00 63 1017.4
20260510130127 49 38 1.0 1.0 0.00 0.00 0.00 66 1017.5
20260510125623 49 48 0.0 0.0 0.00 0.00 0.00 72 1017.3
20260510125120 49 17 4.0 6.0 0.00 0.00 0.00 68 1017.4
20260510124617 49 43 1.0 1.0 0.00 0.00 0.00 73 1017.4
20260510124113 50 219 2.0 2.0 0.00 0.00 0.00 73 1017.3
20260510123609 49 47 1.0 1.0 0.00 0.00 0.00 73 1017.2
20260510123105 49 67 1.0 1.0 0.00 0.00 0.00 72 1017.1
20260510122601 48 10 1.0 1.0 0.00 0.00 0.00 73 1017.0
20260510122057 48 20 2.0 2.0 0.00 0.00 0.00 77 1017.2
20260510121554 48 295 2.0 2.0 0.00 0.00 0.00 78 1017.0
20260510121051 48 15 1.0 1.0 0.00 0.00 0.00 78 1016.9
20260510120549 48 27 1.0 2.0 0.00 0.00 0.00 78 1016.9
20260510120044 48 136 0.0 1.0 0.00 0.00 0.00 81 1016.5
20260510115541 48 24 1.0 1.0 0.00 0.00 0.00 81 1016.3
20260510115039 48 195 3.0 3.0 0.00 0.00 0.00 83 1016.2
20260510114534 48 330 0.0 1.0 0.00 0.00 0.00 85 1016.0
20260510114030 48 25 2.0 2.0 0.00 0.00 0.00 85 1016.0
20260510113526 48 356 0.0 0.0 0.00 0.00 0.00 86 1016.0
20260510113024 48 354 1.0 1.0 0.00 0.00 0.00 85 1015.9
20260510112520 48 38 0.0 0.0 0.00 0.00 0.00 83 1015.6
20260510112016 48 323 0.0 0.0 0.00 0.00 0.00 83 1015.7
20260510111514 48 278 0.0 0.0 0.00 0.00 0.00 84 1015.5
20260510111009 48 21 1.0 1.0 0.00 0.00 0.00 86 1015.5
20260510110505 48 22 0.0 0.0 0.00 0.00 0.00 86 1015.3
20260510110002 48 351 0.0 1.0 0.00 0.00 0.00 86 1015.2
20260510105457 47 319 1.0 2.0 0.00 0.00 0.00 88 1015.0
20260510104952 47 255 1.0 1.0 0.00 0.00 0.00 89 1015.0
20260510104449 47 228 0.0 1.0 0.00 0.00 0.00 90 1014.8
20260510103945 47 127 0.0 0.0 0.00 0.00 0.00 91 1014.9
20260510103443 46 300 0.0 0.0 0.00 0.00 0.00 91 1014.5
20260510102938 46 300 1.0 1.0 0.00 0.00 0.00 91 1014.4
20260510102434 46 301 0.0 0.0 0.00 0.00 0.00 91 1014.4
20260510101931 46 299 2.0 2.0 0.00 0.00 0.00 91 1014.3
20260510101429 46 270 0.0 0.0 0.00 0.00 0.00 90 1014.4
20260510100927 46 278 0.0 1.0 0.00 0.00 0.00 90 1014.0
20260510100423 46 307 0.0 0.0 0.00 0.00 0.00 90 1013.9
20260510095919 47 307 0.0 0.0 0.00 0.00 0.00 89 1014.1
20260510095415 46 300 5.0 6.0 0.00 0.00 0.00 90 1014.3
20260510094914 47 249 0.0 0.0 0.00 0.00 0.00 90 1014.0
20260510094409 47 247 0.0 0.0 0.00 0.00 0.00 89 1013.9
20260510093905 47 247 0.0 0.0 0.00 0.00 0.00 89 1013.8
20260510093401 47 247 0.0 0.0 0.00 0.00 0.00 89 1013.9
20260510092857 47 247 0.0 0.0 0.00 0.00 0.00 88 1013.9
20260510092354 46 286 1.0 1.0 0.00 0.00 0.00 89 1013.5
20260510091849 46 279 0.0 0.0 0.00 0.00 0.00 91 1013.4
20260510091347 46 269 0.0 0.0 0.00 0.00 0.00 91 1013.3
20260510090843 46 269 0.0 0.0 0.00 0.00 0.00 90 1013.5
20260510090340 46 269 0.0 0.0 0.00 0.00 0.00 90 1013.3
20260510085835 46 299 0.0 0.0 0.00 0.00 0.00 93 1013.3
20260510085330 46 299 1.0 1.0 0.00 0.00 0.00 93 1012.9
20260510084826 46 298 1.0 1.0 0.00 0.00 0.00 93 1013.2
20260510084323 46 299 0.0 0.0 0.00 0.00 0.00 93 1012.8
20260510083820 46 299 0.0 0.0 0.00 0.00 0.00 92 1012.8
20260510083317 46 299 0.0 0.0 0.00 0.00 0.00 92 1012.8
20260510082812 46 299 0.0 0.0 0.00 0.00 0.00 91 1012.6
20260510082310 47 299 0.0 0.0 0.00 0.00 0.00 90 1012.7
20260510081809 47 299 0.0 0.0 0.00 0.00 0.00 89 1012.8
20260510081304 47 299 0.0 0.0 0.00 0.00 0.00 88 1012.7
20260510080801 47 299 0.0 0.0 0.00 0.00 0.00 87 1012.5
20260510080255 48 298 0.0 0.0 0.00 0.00 0.00 86 1012.8
20260510075753 48 298 0.0 0.0 0.00 0.00 0.00 84 1012.4
20260510075250 48 298 0.0 0.0 0.00 0.00 0.00 83 1012.2
20260510074747 48 298 0.0 0.0 0.00 0.00 0.00 83 1012.1
20260510074244 48 298 0.0 0.0 0.00 0.00 0.00 82 1012.1
20260510073740 48 297 1.0 0.0 0.00 0.00 0.00 83 1011.9
20260510073236 49 248 0.0 0.0 0.00 0.00 0.00 83 1011.8
20260510072731 49 247 1.0 1.0 0.00 0.00 0.00 81 1012.0
20260510072228 50 247 0.0 0.0 0.00 0.00 0.00 81 1011.9
20260510071725 50 264 1.0 1.0 0.00 0.00 0.00 80 1011.9
20260510071221 50 287 0.0 1.0 0.00 0.00 0.00 80 1011.8
20260510070720 50 307 1.0 1.0 0.00 0.00 0.00 84 1011.8
20260510070217 50 319 1.0 1.0 0.00 0.00 0.00 83 1011.7
20260510065712 50 318 1.0 1.0 0.00 0.00 0.00 85 1011.5
20260510065208 51 284 1.0 1.0 0.00 0.00 0.00 86 1011.6
20260510064705 51 355 1.0 1.0 0.00 0.00 0.00 87 1011.3
20260510064203 51 9 1.0 1.0 0.00 0.00 0.00 87 1011.2
20260510063659 51 2 1.0 1.0 0.00 0.00 0.00 90 1011.5
20260510063155 51 39 0.0 0.0 0.00 0.00 0.00 90 1011.1
20260510062652 52 32 1.0 1.0 0.00 0.00 0.00 89 1011.2
20260510062148 52 2 0.0 0.0 0.00 0.00 0.00 90 1011.3
20260510061643 53 350 1.0 1.0 0.00 0.00 0.00 92 1011.4
20260510061141 53 9 2.0 2.0 0.00 0.00 0.00 94 1011.3
20260510060637 54 3 3.0 2.0 0.00 0.00 0.00 95 1011.2
20260510060134 54 207 2.0 2.0 0.00 0.00 0.00 95 1011.1
20260510055630 54 149 1.0 1.0 0.00 0.00 0.00 95 1010.8
20260510055128 54 148 0.0 0.0 0.00 0.00 0.00 95 1010.7
20260510054623 54 170 0.0 0.0 0.00 0.00 0.00 95 1010.6
20260510054119 54 140 0.0 0.0 0.00 0.00 0.00 95 1010.7
20260510053618 54 142 0.0 0.0 0.00 0.00 0.00 95 1011.1
20260510053115 53 83 0.0 0.0 0.00 0.00 0.00 95 1010.8
20260510052611 53 150 0.0 0.0 0.00 0.00 0.00 95 1010.8
20260510052108 53 150 0.0 0.0 0.00 0.00 0.00 94 1010.3
20260510051603 53 178 0.0 0.0 0.00 0.00 0.00 94 1010.2
20260510051101 53 200 0.0 0.0 0.00 0.00 0.00 94 1010.3
20260510050558 53 275 0.0 0.0 0.00 0.00 0.00 94 1010.0
20260510050055 53 14 3.0 3.0 0.00 0.00 0.00 93 1010.3
20260510045552 53 25 2.0 2.0 0.00 0.00 0.00 93 1010.0
20260510045048 53 143 1.0 1.0 0.00 0.00 0.00 93 1009.5
20260510044544 54 138 0.0 1.0 0.00 0.00 0.00 92 1009.3
20260510044042 54 150 0.0 0.0 0.00 0.00 0.00 92 1009.3
20260510043537 54 118 1.0 1.0 0.00 0.00 0.00 92 1009.1
20260510043033 54 175 2.0 2.0 0.00 0.00 0.00 92 1009.1
20260510042527 54 153 0.0 0.0 0.00 0.00 0.00 92 1009.2
20260510042022 54 146 0.0 0.0 0.00 0.00 0.00 92 1009.1
20260510041520 54 131 0.0 0.0 0.00 0.00 0.00 92 1009.2
20260510041017 54 165 1.0 1.0 0.00 0.00 0.00 92 1009.0
20260510040514 54 202 0.0 0.0 0.00 0.00 0.00 92 1008.9
20260510040009 55 202 0.0 0.0 0.00 0.61 0.61 91 1008.9
20260510035506 55 203 0.0 0.0 0.00 0.61 0.61 91 1009.1
20260510035005 55 203 0.0 0.0 0.00 0.61 0.61 90 1009.0
20260510034504 55 193 0.0 0.0 0.07 0.61 0.61 89 1008.9
20260510034000 55 140 3.0 3.0 0.07 0.61 0.61 90 1009.1
20260510033456 55 165 0.0 1.0 0.00 0.60 0.60 90 1009.2
20260510032954 56 158 1.0 0.0 0.00 0.60 0.60 89 1009.3
20260510032450 56 72 0.0 0.0 0.05 0.60 0.60 89 1009.1
20260510031945 56 248 5.0 7.0 0.05 0.60 0.60 89 1009.4
20260510031441 55 255 2.0 2.0 0.07 0.59 0.59 90 1009.2
20260510030937 55 321 1.0 1.0 0.00 0.58 0.58 92 1009.6
20260510030432 55 171 0.0 0.0 0.00 0.58 0.58 92 1009.0
20260510025930 54 179 0.0 0.0 0.00 0.58 0.58 92 1009.2
20260510025427 54 178 0.0 0.0 0.00 0.58 0.58 92 1009.1
20260510024925 55 232 0.0 0.0 0.00 0.58 0.58 92 1009.3
20260510024421 55 199 0.0 0.0 0.00 0.58 0.58 91 1009.1
20260510023917 55 216 0.0 0.0 0.05 0.58 0.58 90 1008.9
20260510023413 55 270 2.0 2.0 0.17 0.58 0.58 90 1008.8
20260510022911 55 179 2.0 2.0 0.19 0.57 0.57 89 1009.0
20260510022409 56 299 2.0 2.0 0.24 0.56 0.56 88 1009.7
20260510021909 56 286 5.0 6.0 0.47 0.54 0.54 89 1009.7
20260510021407 54 211 5.0 9.0 0.40 0.51 0.51 96 1009.5
20260510020903 53 177 0.0 0.0 0.17 0.47 0.47 96 1009.1
20260510020358 53 96 0.0 0.0 0.00 0.44 0.44 96 1008.6
20260510015854 53 96 0.0 0.0 0.00 0.44 0.44 96 1008.5
20260510015350 53 96 0.0 0.0 0.00 0.44 0.44 96 1008.5
20260510014845 53 96 0.0 0.0 0.00 0.44 0.44 95 1008.6
20260510014343 53 97 0.0 0.0 0.00 0.44 0.44 95 1008.4
20260510013839 53 126 0.0 0.0 0.00 0.44 0.44 95 1008.0
20260510013335 53 126 0.0 0.0 0.00 0.44 0.44 95 1008.3
20260510012830 53 126 0.0 0.0 0.00 0.44 0.44 94 1008.5
20260510012330 53 126 0.0 0.0 0.00 0.44 0.44 94 1008.3
20260510011825 53 126 0.0 0.0 0.00 0.44 0.44 94 1008.1
20260510011320 53 126 0.0 0.0 0.00 0.44 0.44 94 1008.3
20260510010817 54 127 0.0 0.0 0.00 0.44 0.44 93 1008.1
20260510010314 54 126 0.0 0.0 0.00 0.44 0.44 93 1008.1
20260510005811 54 127 1.0 1.0 0.00 0.44 0.44 93 1008.0
20260510005307 54 165 0.0 0.0 0.00 0.44 0.44 92 1008.0
20260510004805 54 166 0.0 0.0 0.00 0.44 0.44 91 1008.0
20260510004302 55 204 0.0 0.0 0.00 0.44 0.44 90 1008.0
20260510003759 55 99 0.0 0.0 0.00 0.44 0.44 90 1008.1
20260510003257 55 118 1.0 1.0 0.00 0.44 0.44 89 1008.2
20260510002755 55 154 1.0 1.0 0.00 0.44 0.44 90 1008.1
20260510002253 56 90 0.0 0.0 0.00 0.44 0.44 89 1007.9
20260510001749 56 18 2.0 2.0 0.00 0.44 0.44 89 1008.0
20260510001248 56 191 0.0 0.0 0.00 0.44 0.44 89 1008.0
20260510000743 56 287 1.0 0.0 0.00 0.44 0.44 88 1007.9
20260510000241 56 229 1.0 1.0 0.00 0.44 0.44 89 1008.0
20260509235737 56 264 2.0 2.0 0.07 0.44 0.44 89 1008.0
20260509235234 56 254 2.0 2.0 0.07 0.44 0.44 89 1008.1
20260509234730 56 49 0.0 0.0 0.07 0.44 0.44 89 1008.3